Find OneWeb SL0366

NORAD ID: 49292 Int'l Des: 2021-090 Owner: ONEWEBN Country: UK Constellation: oneweb operational
LEOCIRCULARPOLARONEWEB_TYPE

現在のビュー

3D地球を読み込み中...

About OneWeb SL0366

OneWeb SL0366 (NORAD 49292) is a oneweb constellation satellite launched Oct 14, 2021 by ONEWEBN of UK. It operates in LEO, CIRCULAR, POLAR, ONEWEB_TYPE orbit with a mass of 148.00 kg.

OneWeb SL0366について

説明を読み込み中...

次回通過

Passes for default location (London). Set your location on the main map for personalized predictions.

高度履歴

Loading altitude history...

軌道要素

1 49292U 21090P 26171.25224952 .00000179 00000-0 44813-3 0 9996
2 49292 87.8967 289.0954 0001964 100.1458 259.9894 13.14502584227964
Epoch: Jun 20, 2026 • Age: 8 hours

現在のステータス

高度 1226.6 km
速度 7.24 km/s
衛星直下点 -51.04°S, 15.18°W
打ち上げ日 Oct 14, 2021
運用期間 4.6 years
タイプ internet

技術仕様

分類 Payload
質量 148.00 kg
乾燥質量 140.00 kg
総質量 148.00 kg
長さ 1.30 m
直径 1.00 m
スパン 5.00 m
形状 Trapezoid+2 pan
製造者 ONEWUS
バスタイプ ARROW
フェーズステータス In Orbit
所有者/国 ONEWEBN/UK

Most Searched